GFSGBSN_sfc_thetae_000.txt.gz
Theta_e
315 315 314 314 314 315 314 313 313 313 314 314 314 314 314 314 314 314 315 314 315 315 315 316 317 318 315 303 304 316 341 340 328 318 313 310 305 302 299 301 303 301 302 302 302 299 300
315 315 315 315 314 314 313 313 312 313 313 313 313 313 313 313 313 313 314 314 314 314 314 315 317 318 306 296 309 313 319 326 322 315 312 311 308 308 303 302 302 304 301 301 299 297 298
316 315 315 315 314 314 313 313 313 313 313 312 312 312 312 312 312 312 313 313 312 313 314 316 317 316 306 298 308 317 322 316 318 316 311 312 311 308 305 302 304 301 298 300 299 298 297
318 317 316 314 314 314 314 313 313 312 312 313 312 312 312 311 311 311 311 312 312 313 315 317 318 313 299 308 309 306 307 311 315 317 313 313 311 308 306 306 303 298 295 292 297 299 300
315 316 317 317 315 314 312 312 313 312 312 312 312 312 311 311 311 311 311 311 312 313 320 320 312 305 297 311 310 310 309 308 313 314 313 316 308 304 302 298 296 296 292 293 296 299 298
313 313 314 315 316 316 314 312 311 313 312 312 312 312 312 311 311 311 311 310 310 312 319 319 315 298 298 298 307 311 311 313 310 310 308 306 301 298 295 293 289 291 292 294 294 297 296
311 311 312 312 314 314 315 315 314 312 312 312 312 312 311 311 310 310 306 299 299 302 307 299 297 298 302 308 309 309 314 312 310 305 299 300 296 293 295 297 298 297 294 294 297 299 296
311 310 310 310 311 313 313 314 314 314 313 312 312 312 312 311 310 310 301 294 298 297 293 303 303 304 307 307 302 305 313 305 303 298 300 297 294 298 300 299 297 295 293 292 296 298 295
309 310 310 310 310 311 312 312 312 313 314 312 312 312 311 311 310 299 297 299 301 298 293 300 303 303 304 306 301 302 309 306 301 298 297 295 298 302 300 297 296 294 292 292 293 296 295
305 306 307 310 310 310 311 311 311 312 313 313 312 311 311 310 298 297 294 300 300 298 290 294 299 302 304 305 300 307 310 307 301 299 298 297 301 300 297 297 297 291 298 297 295 292 287
304 305 306 307 308 309 310 310 311 311 311 312 312 312 311 308 296 295 297 301 300 297 277 294 299 307 303 301 301 302 308 305 300 300 299 298 297 297 296 298 298 296 299 296 295 290 287
305 305 306 306 306 307 308 309 309 310 310 311 312 312 310 300 296 298 301 300 298 289 280 292 299 298 297 299 300 301 303 306 305 299 298 300 302 300 300 301 300 301 295 293 291 288 281
306 306 307 306 306 306 307 307 309 309 309 310 311 311 308 302 293 299 299 296 288 282 293 291 293 297 297 295 297 299 298 297 295 291 292 296 296 299 302 297 296 294 289 283 281 280 282
308 308 308 307 306 306 306 306 308 308 308 309 309 310 308 303 301 300 295 290 281 290 290 296 294 295 293 296 296 296 295 294 297 296 292 291 290 297 300 298 295 291 290 284 279 278 282
309 309 309 309 307 307 306 305 306 307 307 307 307 304 304 303 302 299 290 283 286 289 294 293 293 291 291 295 295 295 294 295 296 297 294 290 291 298 300 300 299 292 288 291 286 286 283
309 309 309 309 309 307 307 306 306 307 307 307 301 300 301 304 304 294 285 285 289 296 296 295 289 291 289 291 292 293 293 297 296 299 299 294 289 297 299 299 297 296 296 287 285 280 279
309 309 308 308 309 308 307 306 306 306 306 306 299 293 302 305 302 291 280 283 289 298 297 294 292 290 291 291 293 291 292 297 300 298 300 295 293 292 297 295 293 292 291 291 288 286 281
309 309 309 308 308 308 308 306 305 305 305 303 297 287 301 303 288 288 283 286 293 293 298 295 294 293 291 292 291 292 293 296 301 300 295 296 292 289 294 298 301 297 294 294 287 285 287
308 308 308 308 307 307 307 306 305 305 304 300 292 292 300 298 284 284 286 288 289 290 294 293 292 294 294 292 289 293 294 299 300 300 295 296 289 285 287 296 299 296 298 295 293 291 289
307 308 308 307 307 307 307 305 305 305 305 300 287 284 290 293 292 286 284 285 285 291 291 293 292 294 292 291 292 291 294 298 299 300 309 303 291 290 288 289 297 294 298 298 294 288 290
307 307 308 307 307 306 305 305 305 305 304 300 288 286 290 284 287 286 284 284 285 284 291 292 290 292 290 287 289 289 292 294 298 303 300 296 289 291 292 295 298 296 297 298 294 294 292
307 307 307 307 306 306 306 306 305 305 304 297 286 287 290 286 289 288 287 283 284 287 286 288 288 292 290 288 289 288 290 291 291 292 294 295 290 291 290 295 295 294 297 299 299 296 296
306 307 307 307 306 305 305 306 306 305 303 294 292 295 292 287 288 286 286 286 287 288 290 291 290 289 288 291 293 292 292 292 292 290 289 292 293 290 286 295 294 291 295 298 298 299 298
306 306 306 307 306 306 306 306 306 305 303 296 296 295 287 284 287 287 289 289 288 289 286 292 291 288 293 298 296 293 290 291 292 290 292 292 293 292 290 293 284 294 301 302 301 301 300
306 306 306 306 305 305 305 304 305 306 303 297 299 295 288 285 288 288 290 289 290 290 289 291 294 295 296 294 289 286 287 288 290 293 296 298 294 290 289 284 293 296 300 299 299 298 303
305 306 306 306 305 305 305 304 304 305 304 299 299 300 293 286 286 292 290 291 287 285 287 290 294 296 294 290 287 281 281 286 286 294 300 298 298 293 285 286 286 294 302 305 303 294 303
305 305 306 306 306 305 305 305 304 305 305 301 298 299 292 288 291 292 289 289 289 288 285 289 289 291 294 287 276 278 282 290 287 291 292 291 291 292 285 283 290 299 304 305 293 295 304
304 305 305 306 305 306 305 305 304 305 305 301 299 300 293 290 291 295 295 292 292 289 285 289 288 289 289 285 285 286 285 288 287 293 293 292 288 288 285 285 287 303 303 299 302 303 306
303 304 305 305 306 305 305 305 305 305 305 303 295 303 301 295 291 294 296 296 295 294 291 289 289 292 295 287 289 290 288 289 288 285 297 292 295 292 293 292 299 306 305 307 304 305 306

GFSGBSN_sfc_thetae_003.txt.gz
Theta_e
315 316 316 316 316 315 314 314 313 313 313 313 313 313 313 313 314 313 313 313 314 314 314 314 316 318 316 305 302 315 342 340 332 322 315 314 312 311 307 308 308 307 309 308 308 305 305
318 318 317 316 315 315 314 314 313 313 313 313 312 312 312 312 312 312 313 313 313 313 313 314 316 318 310 297 310 315 314 322 321 319 316 315 314 314 310 308 308 310 308 306 304 304 304
315 315 316 317 316 314 313 314 314 314 313 313 312 312 312 312 312 312 313 313 312 313 313 315 316 315 308 302 310 322 325 321 323 320 314 317 317 314 313 309 311 307 304 304 304 304 304
313 313 314 315 316 316 316 315 314 314 314 313 313 313 312 312 312 311 312 312 312 312 314 317 318 315 300 310 313 310 311 312 315 320 318 318 318 314 312 311 308 304 303 300 303 303 303
312 312 313 313 314 314 315 315 315 313 313 313 313 312 312 312 311 311 312 312 311 312 316 318 314 310 301 313 309 311 311 307 311 317 319 317 317 312 308 305 302 302 299 300 301 304 302
311 311 311 312 312 312 313 314 315 315 314 313 312 312 312 311 311 311 311 310 310 313 319 318 316 304 305 302 307 313 312 311 312 314 312 312 310 307 305 303 295 298 298 299 299 303 302
307 309 310 311 311 310 312 313 313 314 313 314 313 312 312 312 311 311 308 303 305 307 312 302 302 300 302 308 311 310 314 310 313 312 306 308 304 301 304 305 304 303 301 300 302 305 302
305 305 306 307 309 310 311 310 311 312 313 313 313 312 312 312 312 311 305 299 298 299 296 303 304 307 308 308 302 306 316 308 309 304 306 303 301 306 306 305 302 301 299 299 302 303 302
305 305 306 305 305 307 307 311 311 311 311 312 312 312 312 311 311 303 298 300 304 302 296 300 303 303 305 307 302 303 311 309 306 303 304 303 304 305 304 302 300 301 300 300 300 301 302
306 306 306 306 307 306 305 307 309 310 310 310 311 312 312 311 302 301 297 303 304 302 293 296 300 303 305 306 301 308 310 309 306 303 304 304 305 303 302 302 303 299 303 302 300 299 295
308 308 308 308 308 307 306 305 306 307 310 309 310 312 311 309 302 299 300 305 304 300 282 297 301 309 306 302 304 304 310 308 304 303 304 302 302 302 301 302 304 302 304 302 301 299 297
309 309 310 309 309 309 307 307 305 306 308 309 309 310 310 304 304 303 305 304 302 292 283 294 302 300 299 302 302 304 305 310 310 305 304 305 306 306 305 306 305 306 302 299 298 297 292
309 309 310 310 310 309 309 307 306 305 308 309 309 309 308 303 298 304 304 299 292 286 295 294 296 299 299 298 299 301 300 299 300 297 298 302 303 305 307 303 303 304 300 293 291 292 290
309 310 310 310 310 310 309 309 307 306 307 308 308 308 307 304 302 305 301 293 285 291 292 297 297 299 295 299 299 299 298 296 302 303 299 296 294 302 305 305 302 301 301 294 287 288 292
309 309 310 310 310 309 309 308 308 306 306 307 306 306 302 305 305 304 294 286 288 291 296 295 296 295 295 297 298 298 297 297 301 304 297 296 296 303 305 306 306 298 297 302 296 294 292
308 309 309 309 309 309 309 308 308 307 306 306 302 300 299 306 305 299 289 286 291 297 298 297 292 296 293 295 295 296 296 300 299 303 307 301 295 302 304 306 304 303 303 295 296 288 287
308 308 308 308 308 309 308 308 308 307 306 305 300 293 302 306 303 292 284 286 291 297 299 296 294 295 296 295 296 295 296 299 302 301 305 304 301 297 301 301 300 299 298 298 298 296 291
307 308 307 308 308 308 307 307 308 307 304 302 297 287 303 305 287 288 286 289 292 293 297 297 298 297 296 297 296 296 296 299 303 304 299 304 302 296 298 303 307 305 301 302 295 294 296
307 307 308 308 308 307 307 307 307 306 304 302 291 291 302 301 283 285 289 289 290 290 292 295 295 297 299 297 295 298 298 302 303 303 303 304 302 295 295 302 305 300 302 303 303 302 296
306 307 307 308 308 307 307 307 307 305 304 302 290 285 288 294 293 288 287 286 286 292 291 292 293 297 296 295 297 296 298 300 302 304 310 307 303 298 293 296 302 300 301 302 301 297 297
306 307 307 307 307 307 307 306 305 305 304 299 290 286 289 283 286 287 288 288 286 286 292 295 294 294 294 294 295 296 297 298 301 306 306 306 299 300 301 301 302 301 301 302 300 301 297
305 306 307 307 307 307 306 306 305 305 304 297 286 288 288 287 287 288 288 286 286 288 289 289 290 293 294 293 294 294 296 297 297 300 303 303 300 301 298 300 300 298 301 302 303 302 303
305 306 307 307 307 306 307 306 306 305 304 294 293 296 291 288 287 287 287 288 288 290 291 292 292 292 292 295 299 299 299 299 298 297 298 302 301 297 294 298 298 294 299 300 303 305 304
305 306 307 307 307 306 305 305 305 305 304 298 297 295 288 284 287 287 287 290 289 290 288 294 294 292 296 302 302 301 299 298 297 297 298 303 303 300 296 298 289 301 306 304 303 305 307
304 305 306 307 306 306 305 305 305 304 303 301 301 296 289 285 288 287 290 289 291 292 291 292 296 299 302 300 294 291 293 294 295 297 297 300 302 301 297 296 298 301 304 302 302 303 309
304 305 306 306 306 306 306 305 304 305 304 302 302 303 294 287 287 289 286 292 290 289 290 293 298 302 300 296 292 286 286 290 290 294 301 302 304 300 299 295 291 302 309 310 310 300 311
304 305 306 306 307 306 306 305 304 304 304 303 301 302 296 289 292 288 288 290 293 292 290 293 294 296 300 292 288 287 287 293 289 289 294 296 298 294 294 296 299 306 310 311 299 302 315
303 304 305 306 307 306 306 305 305 304 305 304 300 303 297 292 293 294 294 292 293 294 290 294 294 295 294 289 288 288 288 291 291 295 294 294 293 293 297 293 291 308 309 305 314 315 315
303 304 305 305 306 307 306 306 306 305 305 304 297 303 304 295 294 298 299 300 299 299 297 296 294 294 298 293 293 292 290 294 291 286 297 294 298 296 298 298 310 313 314 318 319 317 313

GFSGBSN_sfc_thetae_006.txt.gz
Theta_e
316 317 318 318 317 315 314 315 314 314 313 313 313 313 313 313 313 313 313 313 314 314 314 314 315 317 316 308 305 318 342 340 331 322 316 316 315 315 310 313 314 311 312 314 316 314 313
314 314 315 316 316 317 316 315 314 314 314 313 313 313 313 312 313 313 314 314 313 313 313 314 315 317 311 300 314 315 316 317 317 321 317 317 317 318 314 314 312 314 313 313 314 313 311
313 313 313 314 314 315 316 316 315 314 313 313 313 313 312 312 312 312 313 313 312 313 313 314 316 316 308 304 313 319 323 323 320 320 316 318 320 316 316 313 316 314 309 312 311 311 310
312 312 311 312 313 313 313 314 315 315 315 314 313 313 312 312 312 312 312 313 312 312 313 315 318 316 304 313 316 314 315 316 322 323 320 321 320 318 315 317 313 309 310 305 311 310 309
308 309 310 311 312 312 311 312 312 314 315 314 314 313 312 312 313 312 313 312 312 312 313 318 317 314 303 315 310 314 315 310 312 316 317 320 319 315 314 310 307 308 302 305 307 312 309
306 306 307 307 308 311 311 311 311 312 311 313 314 313 312 312 312 312 312 312 312 313 320 320 318 308 309 306 311 313 316 313 312 311 316 315 314 310 310 308 300 303 303 305 304 309 308
306 306 307 307 306 307 308 308 311 311 312 311 313 313 313 312 313 312 309 307 307 311 314 305 307 304 306 310 313 311 316 311 311 314 308 313 307 304 308 310 310 307 305 304 307 310 307
308 308 308 308 308 307 306 306 307 310 310 311 312 312 313 312 312 312 308 302 303 303 299 308 309 309 310 311 306 309 317 307 307 305 310 309 304 310 311 311 308 307 305 305 308 309 307
309 309 309 309 309 308 307 307 306 307 310 311 311 311 312 312 312 309 305 304 308 307 300 302 305 306 308 310 306 308 312 309 306 305 307 305 307 312 310 308 306 306 304 305 304 308 308
310 310 310 311 310 310 309 308 307 306 306 309 310 310 311 311 305 308 303 307 309 308 295 299 301 304 307 308 303 311 314 310 308 305 308 308 311 309 308 306 307 303 308 306 305 303 298
310 310 310 310 310 310 310 310 309 307 306 308 309 310 310 310 307 304 305 310 309 307 287 303 304 312 308 304 305 305 313 311 305 305 308 306 308 307 305 306 308 304 308 307 306 303 303
309 310 311 310 311 311 310 310 310 308 307 306 308 309 309 307 307 309 310 309 307 295 286 298 304 302 302 304 304 307 306 311 311 307 309 308 312 310 309 309 308 309 306 306 305 303 296
308 309 310 310 310 310 310 310 310 310 308 307 306 308 308 307 299 310 310 303 292 288 300 297 299 302 302 300 301 304 302 301 301 299 301 305 306 310 311 306 309 307 304 296 295 295 294
308 309 309 309 309 309 309 310 309 309 309 307 307 308 307 305 306 308 305 294 287 294 297 302 301 302 299 302 301 302 301 299 304 304 302 299 297 306 309 306 304 305 304 297 290 292 296
308 308 309 309 309 308 309 309 309 308 308 306 306 304 306 307 306 304 296 286 289 295 300 299 299 298 299 301 301 301 301 300 302 306 301 300 300 308 309 309 308 304 301 307 300 301 296
307 308 308 308 308 309 309 309 308 308 308 306 302 300 301 309 309 299 289 287 292 298 300 301 296 299 297 299 299 300 300 303 302 305 310 305 299 305 308 309 309 307 308 299 300 292 291
306 307 308 308 308 308 308 308 308 308 307 305 299 294 303 309 307 292 284 288 293 298 301 298 297 298 299 300 300 300 301 303 305 304 308 307 304 303 306 304 303 304 303 304 304 301 294
306 306 307 308 308 308 308 308 308 307 305 302 297 288 305 308 288 288 286 292 294 295 298 297 300 300 300 301 301 301 300 303 306 306 302 308 304 299 301 307 309 307 304 305 298 297 300
306 306 307 307 308 308 307 308 308 307 304 298 292 293 306 301 284 285 292 292 295 293 293 295 296 301 303 301 299 302 303 306 306 305 304 307 302 296 298 304 307 303 305 306 306 305 300
305 306 307 307 308 308 307 307 307 306 304 302 296 286 294 293 293 291 289 288 288 296 294 294 294 297 299 299 303 301 302 305 306 306 310 310 304 301 296 300 303 301 302 305 305 300 300
305 306 306 307 308 308 307 307 306 305 304 302 296 289 292 287 286 290 290 290 288 288 294 296 294 296 299 297 299 299 303 304 305 307 309 310 301 302 302 303 304 303 302 303 302 304 300
305 305 306 307 308 307 307 307 306 305 304 299 290 289 290 291 290 290 290 287 288 289 291 291 292 293 298 297 300 298 302 303 302 306 306 310 301 303 301 302 303 301 303 304 304 304 304
304 305 306 307 307 307 307 306 306 305 304 299 295 296 291 289 288 287 286 289 289 292 293 295 294 294 294 299 302 304 306 305 305 306 306 306 303 301 297 301 301 297 302 304 305 306 306
304 305 306 306 307 307 307 306 306 306 305 303 299 296 291 287 289 288 289 290 289 291 291 295 296 294 297 304 305 305 304 303 303 304 309 306 304 303 298 300 291 302 308 307 305 306 308
304 305 306 306 307 307 307 306 305 304 304 303 302 298 294 287 290 289 290 290 292 293 290 295 297 300 301 300 297 296 297 299 300 303 302 310 307 300 298 298 299 303 306 305 304 304 309
303 305 306 306 307 308 307 305 304 305 305 304 303 303 298 289 290 291 288 292 291 291 291 295 299 306 303 295 292 290 290 294 295 297 303 304 310 303 301 296 292 303 309 312 311 300 311
304 305 306 306 307 307 306 306 304 304 305 305 303 306 298 290 295 294 289 288 295 295 293 295 297 298 302 292 288 290 292 298 294 295 296 298 300 299 299 300 301 309 311 314 301 303 315
304 305 305 305 306 307 307 307 306 304 305 305 305 307 300 291 295 296 294 288 292 297 292 297 295 296 295 290 289 289 292 296 296 299 298 298 297 297 301 298 295 313 313 306 312 322 318
304 304 305 305 305 306 307 307 306 305 305 305 299 305 305 296 296 301 301 302 300 301 298 299 297 296 296 293 292 293 290 294 295 292 301 296 302 300 301 302 316 317 315 320 319 317 318

GFSGBSN_sfc_thetae_009.txt.gz
Theta_e
314 314 314 315 315 316 317 316 316 315 315 314 314 314 313 314 314 313 313 313 314 314 313 313 315 316 316 310 308 319 342 337 325 320 318 317 317 317 314 316 316 314 314 315 315 316 317
313 313 313 313 313 314 315 316 316 316 315 315 314 313 313 313 313 313 314 314 314 314 313 313 315 316 312 301 315 318 323 326 326 321 318 318 318 320 316 315 313 316 315 315 316 315 316
311 311 312 312 313 313 313 312 313 315 316 315 315 315 314 313 313 314 314 314 313 313 313 314 315 315 309 305 316 317 316 315 317 318 318 319 319 316 317 312 317 316 311 313 314 314 314
307 308 308 309 309 311 312 312 311 312 314 315 315 314 314 314 314 314 314 314 313 314 314 315 316 315 306 315 318 315 317 319 322 323 317 321 320 316 316 318 314 312 312 307 313 314 314
308 308 308 307 307 308 308 309 311 311 311 312 314 314 314 314 314 314 313 313 313 314 315 316 316 313 305 318 312 314 316 312 314 317 321 320 320 313 314 310 308 310 304 306 308 315 313
309 309 309 309 309 309 308 307 308 309 311 311 312 313 314 314 314 313 312 312 314 312 318 319 315 309 312 307 312 314 316 314 312 312 314 313 314 310 310 308 300 305 306 307 306 312 313
310 311 311 311 310 310 309 308 308 307 308 311 311 311 312 313 314 313 311 312 308 310 314 307 307 306 308 312 314 312 315 313 312 310 303 310 307 304 307 310 310 309 308 306 310 312 310
310 310 311 311 311 311 311 310 309 308 307 308 310 311 312 312 313 313 312 306 307 307 302 313 313 311 313 312 307 310 317 308 307 303 306 308 305 310 311 311 309 309 307 306 310 312 311
310 310 311 311 311 311 311 311 311 310 309 308 309 310 311 311 312 311 309 309 313 311 301 303 307 308 310 312 307 308 312 310 305 303 305 305 308 312 310 309 308 308 306 306 306 310 312
310 309 310 311 311 311 312 312 312 311 310 309 308 309 310 311 306 310 308 312 312 311 296 300 304 307 309 310 305 312 314 311 307 303 306 307 312 310 308 308 309 305 310 308 307 306 301
309 309 310 310 310 310 311 311 311 312 311 310 308 307 309 309 305 308 309 312 312 309 288 305 306 313 310 306 307 307 313 311 305 305 306 304 308 308 307 308 311 307 311 308 308 305 304
308 308 309 309 310 310 310 310 310 311 311 310 308 307 309 307 308 310 313 312 308 295 287 301 307 304 304 305 306 310 307 312 312 306 307 307 313 311 310 312 311 312 308 307 307 305 297
307 308 309 309 309 309 309 309 310 310 310 310 309 308 307 308 304 311 310 306 292 288 301 300 302 305 304 302 303 305 303 302 302 299 300 305 306 311 313 309 311 309 305 297 296 297 295
306 307 308 308 309 309 309 309 309 309 309 310 309 308 306 306 311 309 305 296 286 294 298 305 304 304 301 304 303 303 302 300 305 305 302 300 298 308 312 310 306 306 305 298 292 294 298
305 307 307 308 308 309 309 308 308 308 309 308 307 305 304 306 309 306 297 286 289 295 301 301 303 300 301 304 303 303 303 301 304 307 301 301 301 309 311 312 310 305 302 308 302 303 298
305 305 306 307 308 309 309 309 309 309 308 307 303 299 299 305 309 303 289 286 292 298 300 302 297 301 299 301 301 301 302 305 304 307 310 308 301 308 309 311 311 308 310 301 302 294 293
305 305 307 307 307 308 308 309 309 309 308 306 300 293 301 306 308 295 283 288 293 298 300 297 297 299 301 302 303 302 302 306 307 306 308 308 307 305 309 306 304 304 303 305 306 302 296
305 306 306 307 307 308 308 308 308 308 307 303 296 290 305 309 290 291 286 291 294 295 299 298 298 297 298 302 303 302 302 305 309 309 303 309 307 302 304 310 311 309 305 307 300 299 302
305 305 306 307 307 307 308 308 308 306 304 299 295 298 308 306 286 289 293 292 292 294 295 295 295 298 301 299 299 304 304 309 309 308 306 310 305 300 302 306 309 306 306 307 308 307 302
305 305 306 307 307 308 308 308 307 305 303 302 293 289 295 297 294 290 291 290 290 296 294 296 296 298 296 297 303 302 304 308 309 308 312 313 308 303 299 303 305 302 304 306 306 301 301
304 305 306 307 307 308 307 307 306 305 304 302 297 292 295 287 289 291 291 291 290 289 294 297 294 295 296 296 300 301 305 306 308 309 310 312 305 305 306 307 306 305 304 304 304 304 302
304 305 306 307 307 307 307 307 306 305 304 300 292 293 298 293 292 290 291 290 288 290 292 292 292 295 295 296 300 298 302 305 305 307 307 314 305 305 302 305 306 303 305 305 305 305 305
305 305 306 307 307 308 308 307 306 306 304 298 303 301 294 289 291 289 288 290 290 292 293 295 295 294 293 297 299 303 306 307 309 306 309 307 306 303 299 303 303 300 304 305 306 306 307
304 305 306 307 307 308 308 307 307 306 304 304 302 302 290 288 289 290 291 291 291 292 291 295 297 294 299 303 303 305 305 306 309 309 312 310 308 305 300 302 293 304 310 309 307 308 309
304 306 306 306 307 308 308 307 305 305 305 304 302 297 294 289 292 291 291 292 294 294 294 295 298 301 303 299 295 295 299 301 304 307 308 313 310 301 299 299 301 304 307 307 305 305 311
304 305 306 306 307 308 308 307 306 306 306 304 306 303 297 291 292 294 293 294 291 292 294 296 301 305 301 295 292 288 290 296 297 301 309 309 312 306 301 297 293 304 309 312 312 301 312
304 305 306 306 306 306 308 308 307 305 306 305 304 308 300 292 297 297 291 290 294 296 294 297 298 299 302 293 288 290 292 300 294 296 298 302 305 301 298 299 302 309 312 313 300 304 315
304 305 305 306 306 307 307 308 307 306 306 306 305 310 302 295 297 298 297 293 294 295 292 298 297 298 298 292 289 289 292 298 297 301 300 298 300 300 301 297 296 313 312 305 313 316 317
304 304 305 305 306 306 307 307 307 306 306 306 302 310 309 297 296 303 303 302 301 297 294 299 298 297 298 295 294 294 291 294 296 293 305 299 304 302 304 303 315 316 315 320 320 318 318

GFSGBSN_sfc_thetae_012.txt.gz
Theta_e
313 314 314 314 313 313 314 315 316 316 316 316 315 314 314 314 314 314 315 314 314 314 314 314 314 316 313 306 306 318 339 337 328 319 315 313 313 317 313 314 316 314 315 316 317 316 315
310 310 311 311 311 313 313 313 313 314 315 316 316 316 315 315 315 315 315 314 315 315 314 314 315 315 310 300 313 315 316 325 320 316 313 314 313 315 313 313 313 316 315 315 315 315 315
309 309 309 308 308 309 310 311 312 313 313 314 314 316 316 315 315 315 314 314 313 314 314 314 315 313 306 303 315 317 316 317 322 320 314 315 317 314 315 312 317 315 310 312 313 314 312
310 309 309 309 309 309 309 309 309 310 311 313 313 313 315 315 315 315 315 314 313 314 314 315 316 311 301 312 316 312 314 313 315 316 318 321 320 315 312 314 312 309 309 304 311 313 314
312 312 311 311 311 310 310 310 309 308 309 310 313 312 313 313 314 315 314 314 314 315 315 317 311 306 299 316 310 314 315 311 315 319 319 318 315 313 311 305 304 307 302 303 307 314 313
311 311 311 312 312 312 312 311 311 310 309 308 310 312 312 312 313 313 313 313 314 315 314 316 311 303 309 308 311 314 316 313 310 310 309 310 311 306 307 304 296 301 302 304 305 311 312
311 311 311 312 312 312 312 312 312 311 310 310 308 310 312 312 313 312 310 310 307 308 307 305 306 303 308 315 317 311 314 312 310 307 301 306 304 301 305 308 306 306 305 305 309 312 310
310 310 310 311 311 311 312 312 313 312 312 311 310 308 309 311 312 311 309 304 307 309 301 309 309 309 310 313 306 308 314 307 305 300 304 302 301 306 308 309 306 305 304 305 308 311 310
309 309 309 309 310 310 311 311 312 312 312 312 311 309 308 310 311 308 305 305 313 313 300 302 308 310 311 311 307 307 309 308 304 300 301 299 302 307 307 307 304 305 304 305 305 309 310
307 308 308 309 310 310 310 311 311 311 311 312 312 310 308 309 305 309 308 312 315 312 293 296 301 305 309 312 306 313 313 308 305 301 302 301 305 304 306 305 306 302 308 308 307 304 299
306 307 308 309 309 309 310 310 310 310 310 311 311 310 309 307 305 303 309 313 312 308 284 303 303 313 309 306 307 308 314 309 303 302 303 300 302 302 305 306 309 306 310 308 308 305 304
307 307 308 308 309 309 309 309 310 310 310 310 311 310 309 304 305 307 310 313 309 292 283 299 307 304 303 304 306 309 308 310 309 304 305 303 308 307 307 310 310 311 308 308 307 304 297
307 306 307 308 308 308 309 309 309 310 310 310 310 310 309 307 300 309 310 305 290 284 298 298 302 304 302 301 302 304 303 302 300 296 298 302 302 307 310 306 310 308 306 297 295 294 294
307 307 307 307 308 308 308 308 309 309 309 309 309 309 308 309 307 307 304 294 283 290 292 304 304 304 300 303 302 302 302 299 304 302 299 297 295 303 309 307 305 307 306 298 291 292 295
306 306 306 307 307 308 308 308 308 308 308 308 307 307 306 307 307 305 296 284 285 291 297 296 299 297 300 303 303 301 301 301 303 305 299 298 298 307 308 310 310 306 302 307 300 301 297
305 305 305 306 307 308 308 308 309 309 308 308 304 302 302 308 307 302 291 285 290 295 296 296 291 297 294 300 300 301 301 304 303 306 309 305 299 306 307 310 311 309 310 300 301 292 291
305 305 306 307 307 307 308 309 309 308 308 307 303 293 302 309 307 295 285 287 291 296 296 292 292 293 294 294 299 300 301 304 306 305 307 308 306 304 307 305 304 305 304 304 304 301 295
306 306 306 307 307 307 308 308 308 308 307 305 297 288 305 306 291 290 287 291 294 293 295 293 294 293 293 296 296 297 301 305 309 308 303 307 306 301 303 309 311 309 306 306 299 299 301
305 305 306 306 307 307 307 308 308 307 305 300 292 293 305 306 285 286 292 291 293 292 292 291 292 294 296 295 293 300 303 309 309 308 306 308 303 299 301 306 309 306 307 308 309 308 302
305 306 306 307 307 307 308 308 308 306 303 302 293 288 298 298 296 292 290 289 289 296 294 293 292 294 294 293 297 296 300 307 309 309 311 312 305 302 299 303 307 304 305 306 305 302 300
304 306 306 307 307 308 308 308 307 307 304 300 296 292 295 289 290 290 290 291 288 287 294 295 292 292 291 290 293 296 300 299 305 310 311 311 301 305 305 306 306 305 304 304 304 305 301
305 306 307 307 308 308 308 308 307 306 305 299 294 293 296 293 293 290 288 289 288 290 291 291 291 293 294 291 293 293 296 298 299 304 308 313 302 304 302 304 305 303 305 305 305 304 305
305 306 307 307 307 308 308 308 308 307 305 299 301 302 296 291 291 289 290 290 290 292 294 294 294 293 291 294 298 300 301 301 301 300 302 309 306 303 298 304 303 300 305 305 306 307 307
305 306 306 307 307 307 308 308 308 306 305 305 301 300 292 287 291 289 291 292 291 292 291 295 296 294 296 301 301 300 299 299 301 303 308 306 308 305 299 303 293 304 311 309 307 309 310
305 306 306 307 307 307 308 308 308 306 306 302 303 296 291 288 291 291 291 292 293 295 293 294 296 299 302 299 293 291 294 297 300 304 305 311 309 302 298 298 302 303 307 307 307 307 312
304 305 306 306 307 307 308 308 309 308 306 304 306 304 296 290 291 294 293 294 291 291 293 295 300 303 301 296 291 284 287 295 296 300 307 309 311 303 301 295 293 305 309 312 312 302 314
305 305 305 306 306 306 307 308 308 307 307 305 305 307 299 291 295 297 292 291 295 293 291 295 297 297 301 294 288 287 287 296 293 296 298 301 304 299 299 299 301 309 311 313 300 305 315
306 306 306 306 306 306 307 307 308 308 307 305 305 309 301 294 296 299 300 296 295 294 289 293 296 298 297 291 289 288 288 294 296 300 301 300 299 300 301 299 295 311 310 305 316 326 321
306 306 306 306 306 306 307 307 307 307 307 306 302 310 309 298 297 303 302 302 301 299 292 293 294 297 297 295 294 295 290 292 292 292 302 295 304 301 304 303 320 319 319 323 324 321 319

GFSGBSN_sfc_thetae_015.txt.gz
Theta_e
310 310 310 310 310 311 311 313 314 314 314 314 314 314 315 317 316 316 315 315 314 314 314 314 315 316 311 302 302 315 341 338 330 325 313 310 306 306 304 310 313 311 312 315 316 315 311
310 310 310 310 309 309 309 310 310 312 313 313 314 313 314 316 316 316 315 315 314 314 315 314 315 316 307 295 308 312 311 315 319 316 312 310 308 309 304 308 310 313 312 312 314 313 310
312 312 312 311 311 311 311 311 310 309 310 311 312 313 313 314 315 316 315 315 314 314 315 315 315 312 302 298 311 312 309 307 314 315 311 312 311 308 308 305 309 309 305 309 311 311 308
312 312 312 312 313 312 312 312 311 311 311 310 310 311 312 312 313 314 315 315 314 315 315 316 316 309 297 307 310 307 308 307 311 316 316 315 313 308 306 308 307 303 303 300 306 309 310
311 312 312 313 314 313 313 312 312 312 312 311 311 310 310 311 312 313 313 313 313 313 315 316 309 304 294 310 304 309 310 306 309 311 316 320 315 306 306 302 298 300 295 298 302 309 309
311 311 311 311 312 312 312 312 312 312 312 312 312 311 310 310 311 312 312 312 311 313 312 313 310 298 301 301 306 309 310 310 308 308 307 305 304 300 299 298 292 294 295 300 300 306 307
309 310 310 310 310 311 311 311 312 312 312 312 312 312 311 310 310 311 308 302 300 302 305 301 301 298 305 309 314 310 311 308 307 303 296 303 296 294 299 301 303 301 299 299 304 308 306
308 308 309 309 309 309 310 311 311 311 311 311 311 312 311 310 309 310 306 296 300 302 295 304 304 304 306 308 303 309 312 304 301 295 299 296 293 299 304 304 302 302 299 298 303 307 307
307 307 307 308 308 309 309 310 311 311 311 311 311 311 311 310 309 304 300 300 305 304 295 300 303 303 305 307 302 303 308 304 300 296 296 293 297 302 303 302 301 301 300 299 299 305 306
307 307 307 307 308 309 308 309 309 310 311 310 310 311 311 310 302 301 300 307 309 306 289 291 297 301 304 307 302 310 310 304 301 297 297 295 300 300 299 300 302 297 305 304 302 301 294
307 307 308 308 308 308 309 308 309 309 310 310 310 310 311 309 298 295 302 305 308 305 276 296 297 307 303 303 306 306 311 306 298 299 298 295 296 297 297 299 303 300 306 304 303 300 297
307 307 307 307 307 308 308 309 309 310 310 310 310 310 310 306 302 299 303 307 303 286 277 292 301 299 297 302 304 308 305 308 305 300 300 299 303 301 299 302 304 306 304 303 302 300 290
307 307 306 307 308 308 308 308 309 309 309 310 309 309 308 307 298 304 303 301 285 280 292 291 296 298 297 296 300 302 300 298 295 291 292 298 298 302 303 299 302 304 298 291 287 288 286
307 306 306 307 307 308 308 308 308 309 309 309 309 309 307 306 306 305 300 292 279 286 287 294 293 294 292 298 297 299 299 295 299 297 292 291 290 299 303 299 298 299 299 291 284 286 289
306 306 306 306 307 307 308 308 308 308 308 308 307 302 303 304 306 305 294 281 282 286 290 291 290 289 292 294 296 297 296 296 298 299 292 291 292 302 303 304 302 299 296 301 293 294 289
306 306 306 306 307 307 308 308 308 308 308 307 302 300 298 305 306 300 288 283 285 291 292 291 284 288 284 288 291 293 295 299 299 301 301 296 291 300 302 303 303 301 304 295 292 286 283
305 305 306 307 307 308 308 308 308 308 307 307 300 293 299 304 304 293 283 284 289 293 293 289 286 286 287 287 290 290 294 300 302 301 301 299 295 297 301 298 296 298 298 297 295 292 286
305 306 307 307 307 307 308 308 308 308 306 304 298 288 302 304 289 290 285 288 293 292 294 291 291 289 287 289 288 289 292 299 304 304 297 299 295 292 297 303 304 302 299 297 293 290 293
305 306 307 307 307 308 308 308 308 308 305 300 292 292 302 302 283 285 288 289 291 290 290 290 290 292 291 289 286 291 295 301 303 301 299 299 295 289 293 297 301 300 302 301 298 296 293
305 306 307 308 308 308 308 308 308 307 305 300 292 285 294 295 293 288 286 287 287 293 291 292 291 293 289 288 291 289 291 298 301 303 309 305 295 293 290 295 299 298 301 301 298 292 294
305 306 307 308 308 308 308 308 308 307 305 300 293 289 293 286 288 289 289 287 285 285 291 291 289 290 289 285 288 288 292 295 299 303 298 300 293 297 298 300 301 301 301 301 298 299 296
305 306 307 307 307 308 308 308 308 307 306 298 289 290 292 288 290 288 288 286 285 287 289 287 287 291 291 288 289 287 291 291 292 296 293 296 294 297 295 301 300 300 302 302 302 301 300
306 306 307 307 307 307 308 308 308 307 305 297 298 299 294 289 287 287 287 288 288 290 292 293 292 290 290 292 294 296 295 294 294 292 291 292 296 294 291 297 298 294 301 301 302 302 301
306 306 306 307 307 307 307 308 308 308 305 302 299 297 289 285 287 288 289 290 289 290 289 292 293 290 294 301 299 296 295 295 295 295 295 291 292 295 292 294 286 298 305 306 303 304 303
307 307 307 306 307 307 307 307 308 309 306 301 302 296 289 284 287 289 290 290 292 292 290 292 294 298 298 295 290 288 288 290 293 295 295 297 294 293 290 290 296 300 304 303 301 300 306
306 307 307 307 307 307 307 308 308 308 307 301 302 303 295 287 286 292 289 291 287 287 289 292 297 298 297 294 290 283 281 288 291 297 300 299 300 295 292 287 286 297 305 308 306 297 306
306 306 307 307 307 307 307 307 308 308 308 303 302 305 297 290 292 294 288 289 293 291 287 291 292 292 297 290 285 284 284 290 286 290 295 295 296 294 292 289 294 303 308 308 294 295 307
305 305 306 306 306 306 307 307 307 308 308 304 301 305 299 293 294 297 297 293 293 292 288 291 289 291 291 285 287 288 287 288 287 291 294 294 294 293 292 291 288 306 305 298 301 307 309
304 304 304 304 305 306 306 307 307 307 308 307 299 306 306 298 295 300 300 301 299 298 293 291 290 289 293 290 289 291 289 291 289 285 297 293 297 294 296 295 305 308 305 312 312 307 310

GFSGBSN_sfc_thetae_021.txt.gz
Theta_e
313 313 313 314 314 313 313 313 313 313 312 312 312 312 310 310 311 312 313 313 313 314 315 315 315 315 309 301 296 305 327 323 328 319 311 307 303 303 299 303 307 305 308 310 312 313 313
312 312 312 312 313 312 312 312 312 313 313 313 313 313 312 312 310 310 312 313 313 313 313 314 314 315 304 290 302 307 306 306 306 314 312 307 305 306 299 300 299 304 305 307 309 311 312
311 311 311 311 311 311 311 311 311 311 312 313 313 313 313 313 312 311 310 311 312 313 312 313 313 310 302 298 307 305 303 301 303 305 308 312 310 305 301 298 302 301 298 301 302 305 305
310 310 310 310 310 309 309 310 311 311 312 312 312 312 312 312 312 312 312 312 311 310 311 313 313 307 298 309 310 308 307 303 302 303 306 310 312 304 300 300 301 297 296 292 301 304 306
309 308 308 308 308 309 308 309 310 311 311 311 312 312 311 311 311 312 313 312 311 310 310 311 305 303 294 310 305 308 305 300 302 302 303 309 307 301 299 296 291 292 290 292 296 303 302
307 307 308 308 308 307 307 309 309 309 310 310 311 311 311 311 311 312 312 311 310 308 307 307 306 297 300 298 302 304 304 303 301 301 300 300 301 296 293 291 287 289 290 293 294 300 300
307 307 307 307 307 307 307 309 309 309 309 310 310 311 310 311 311 311 309 299 293 296 300 296 296 295 299 304 307 304 304 300 301 299 291 296 293 293 296 298 299 296 294 294 297 301 299
308 308 308 308 308 307 307 308 308 309 309 310 310 310 310 310 310 311 304 293 297 298 291 299 298 300 304 305 298 303 305 297 296 290 295 293 290 297 303 301 299 296 293 293 298 301 298
308 308 308 307 307 307 307 307 308 308 310 310 310 310 309 310 310 302 295 297 303 302 290 294 298 297 299 302 297 299 303 301 295 291 292 291 294 299 300 298 296 295 293 293 294 299 300
308 307 307 307 307 307 307 307 308 308 309 310 310 310 310 310 301 296 296 299 301 302 284 288 295 297 299 300 295 303 305 303 296 291 292 291 296 297 296 296 295 290 298 297 296 294 288
307 307 307 307 308 308 307 307 308 308 309 309 309 309 309 309 301 297 299 301 305 299 273 290 293 304 301 296 299 299 304 301 296 294 294 290 293 293 293 295 297 294 300 298 298 294 291
306 306 306 307 307 307 308 308 308 308 309 309 309 309 309 303 301 301 303 301 298 283 275 287 293 291 292 296 297 301 300 302 301 296 294 293 298 297 296 299 299 299 296 295 294 292 287
305 306 306 307 307 308 308 309 308 309 309 309 309 308 306 305 295 299 301 294 282 277 289 286 286 290 289 289 294 295 295 293 291 288 289 292 293 296 298 293 296 294 288 282 280 282 284
305 306 307 308 308 309 309 309 309 309 309 309 308 307 305 303 300 301 295 287 276 284 285 291 289 288 286 288 288 290 292 291 295 293 290 287 285 294 298 294 291 292 291 284 279 281 286
305 306 307 307 308 309 309 308 308 308 308 307 306 301 298 298 302 300 293 280 278 284 288 286 288 284 285 287 287 288 287 291 294 295 287 287 287 297 298 298 296 290 288 294 287 288 285
305 306 307 307 308 308 308 308 309 308 307 306 300 296 293 301 301 300 288 281 283 289 289 289 282 286 281 284 284 285 286 293 293 296 295 291 285 295 297 299 297 292 294 286 286 281 281
306 306 306 308 308 308 308 308 308 308 306 304 294 289 294 304 304 293 282 281 286 290 290 287 285 283 284 284 286 284 286 292 294 293 296 292 288 290 294 292 292 289 289 289 289 288 283
306 306 306 307 308 307 307 308 308 307 305 297 290 284 297 304 288 288 281 286 291 288 292 289 289 287 286 287 285 285 285 290 296 294 289 292 288 286 289 294 299 295 291 291 288 285 288
307 306 307 307 307 307 307 307 308 307 305 297 290 290 298 300 283 284 287 287 288 288 288 288 287 289 290 287 283 287 289 295 295 292 291 292 288 284 285 290 293 293 293 294 290 290 287
307 308 308 307 308 307 307 307 307 307 306 293 290 283 289 292 290 286 285 285 285 291 289 289 288 289 287 285 288 286 287 291 294 293 299 294 288 288 285 288 292 289 293 293 292 288 289
306 307 308 308 308 308 307 307 307 307 306 294 287 284 290 283 285 286 285 286 284 284 289 288 285 286 286 283 285 285 289 291 293 295 294 288 283 289 293 294 293 294 293 294 293 293 291
306 306 307 307 307 307 307 308 308 307 303 290 287 289 289 287 288 285 284 284 285 287 287 286 284 287 288 285 287 285 289 289 288 291 291 289 282 288 290 294 294 291 294 295 295 296 295
305 306 306 307 306 306 307 308 308 307 300 294 295 297 291 285 285 280 280 284 286 288 290 291 290 287 286 289 293 294 294 294 293 290 289 288 285 283 283 293 291 287 292 293 295 298 298
306 305 306 306 305 305 306 307 307 308 303 296 295 295 288 281 282 283 286 287 287 288 286 290 291 286 291 296 295 295 294 293 294 293 293 288 284 284 281 288 280 292 297 297 296 298 299
305 305 305 305 304 304 304 305 307 308 307 298 294 296 290 284 284 286 287 287 288 288 287 289 291 292 292 290 287 285 287 288 289 292 291 291 286 281 281 282 289 293 296 295 294 294 301
304 304 304 304 304 304 304 305 306 307 307 299 294 295 294 287 283 289 287 288 286 286 286 288 292 293 290 286 284 279 279 285 285 290 297 293 289 284 285 281 280 291 298 301 300 293 300
304 304 304 304 304 305 305 306 306 307 307 299 299 297 297 288 291 292 288 288 291 290 287 287 288 289 295 288 282 277 281 288 283 285 286 285 285 282 284 282 290 297 299 304 292 291 304
304 304 304 304 304 305 305 306 307 307 307 302 299 299 297 292 293 294 294 290 290 291 287 288 287 291 290 283 282 284 286 288 286 288 286 285 286 283 286 285 284 300 299 293 297 302 306
303 303 304 304 305 305 305 306 307 307 307 306 296 299 301 295 292 296 297 298 297 295 292 292 288 290 291 286 289 289 288 288 287 282 290 285 288 287 290 292 297 299 296 299 300 299 305

GFSGBSN_sfc_thetae_024.txt.gz
Theta_e
312 312 312 312 312 311 311 311 311 311 312 312 312 313 313 313 313 312 312 311 311 312 313 313 314 315 309 298 295 303 322 315 320 318 307 307 306 308 302 304 307 303 307 308 310 309 310
310 310 310 310 310 310 309 310 310 311 311 312 312 312 312 312 312 313 313 313 312 310 310 312 312 313 304 292 305 303 308 303 303 310 310 305 303 306 300 299 298 303 305 305 305 307 308
310 310 309 309 309 310 309 309 310 310 311 311 311 311 311 311 311 311 313 311 311 312 312 310 312 308 300 297 309 310 309 303 301 302 302 311 308 304 300 296 299 299 294 298 300 301 301
308 309 309 309 309 308 307 308 309 310 310 311 311 312 311 311 311 310 311 312 312 312 312 312 311 305 294 307 309 307 308 306 307 305 301 305 311 304 298 299 298 295 294 290 298 302 302
308 307 308 308 308 307 306 307 309 309 309 310 311 311 311 310 310 311 311 311 311 312 312 311 303 300 291 308 303 308 308 303 304 304 300 305 307 301 298 295 291 292 289 290 293 300 300
308 307 307 307 308 306 307 308 308 308 309 309 310 311 311 310 310 310 311 310 310 307 306 306 304 295 297 294 304 304 307 305 300 298 297 297 299 295 292 291 285 287 288 291 291 297 296
309 309 309 308 307 307 307 307 308 308 309 310 310 310 310 310 309 310 307 297 295 294 297 292 293 294 296 303 307 303 303 302 300 295 289 293 291 291 293 295 294 294 291 291 295 300 297
308 308 308 308 308 307 308 307 308 308 309 309 310 309 310 310 309 310 304 291 296 296 289 297 297 298 301 303 295 300 302 295 294 290 293 291 288 294 297 297 296 294 292 292 297 300 297
308 308 308 307 308 307 307 307 308 308 309 310 309 309 309 309 309 299 294 296 300 299 288 293 297 296 296 299 295 295 302 297 293 290 290 288 292 297 298 296 294 294 293 294 294 296 296
306 306 307 307 307 307 308 308 309 309 309 309 309 309 309 309 299 296 295 299 301 303 283 287 292 295 297 297 293 300 303 298 294 289 291 289 295 294 295 295 296 291 298 298 296 292 286
306 306 307 308 308 309 308 309 309 309 309 310 309 309 309 308 299 296 298 301 301 296 272 288 293 302 299 293 295 296 302 299 293 292 291 288 291 291 292 295 299 294 300 298 296 290 288
306 306 307 308 308 309 309 309 309 309 310 309 309 309 309 304 301 299 301 300 295 283 274 286 292 290 290 295 295 298 295 298 300 293 292 291 297 295 294 298 300 299 296 293 291 289 283
305 306 307 308 308 308 309 309 309 309 309 308 308 308 306 304 295 298 298 293 280 274 288 284 286 289 289 288 292 294 293 289 289 286 286 289 290 293 296 293 295 293 288 280 279 280 281
306 306 307 308 308 308 308 308 309 309 309 308 307 306 303 303 298 300 294 285 275 282 283 290 288 288 285 288 287 288 289 287 291 290 288 285 283 292 295 292 291 292 289 282 277 279 284
306 306 307 307 308 308 308 308 308 308 308 307 305 296 294 297 300 302 293 278 277 283 287 286 287 284 284 287 287 287 285 289 291 292 285 286 286 295 296 296 296 289 288 291 285 287 284
307 307 307 307 308 307 308 308 308 308 308 306 297 296 293 303 302 299 285 280 282 288 288 287 281 285 280 283 283 284 285 291 290 293 292 289 284 293 295 296 296 292 294 285 284 279 279
307 307 307 308 308 308 308 308 308 308 307 304 290 288 293 305 302 292 278 281 285 290 290 285 284 282 283 283 285 283 284 290 293 290 293 290 287 288 292 291 289 287 288 286 287 285 281
307 307 307 308 308 308 308 308 308 307 306 300 292 280 295 303 288 287 281 285 290 287 290 288 288 285 283 286 285 283 283 287 294 293 286 291 286 284 288 293 297 294 289 288 285 283 285
306 307 307 308 308 308 307 307 308 307 306 298 288 286 296 298 282 284 287 287 288 287 287 287 286 288 289 286 282 287 287 292 293 291 288 291 285 281 283 289 291 291 291 290 288 287 285
306 306 307 307 307 307 307 307 307 307 306 292 285 281 286 289 289 287 283 284 284 290 288 288 287 288 285 285 288 285 287 291 293 293 297 294 285 285 282 285 289 288 291 292 287 283 286
305 306 306 307 307 306 306 307 307 307 304 292 285 283 290 280 282 286 284 284 283 283 289 289 284 285 284 282 285 285 289 290 292 295 294 290 281 286 288 291 292 291 291 291 290 291 287
305 305 305 306 306 306 305 306 307 307 302 290 285 285 289 286 287 283 283 282 283 286 286 286 285 287 286 283 286 284 288 289 288 291 291 291 281 285 283 291 292 291 291 292 292 292 291
306 306 305 305 305 305 305 305 306 306 300 289 290 292 292 286 285 279 278 284 284 286 288 290 288 286 285 287 291 291 292 292 292 290 288 287 283 281 279 286 288 286 291 291 292 295 294
305 305 305 305 305 304 304 304 306 306 305 298 296 295 289 282 284 284 285 286 285 287 286 288 290 286 289 293 294 292 291 291 292 292 293 287 285 282 279 285 280 290 295 296 293 294 295
304 305 304 304 304 305 304 305 306 306 307 299 297 295 290 283 286 286 287 286 287 288 285 287 290 292 291 289 284 282 286 287 289 291 291 291 287 281 279 282 287 291 294 293 290 291 297
304 304 304 304 304 305 305 306 306 307 307 300 298 298 294 287 283 289 287 288 286 286 286 288 292 294 292 286 281 278 276 284 284 287 292 291 290 285 282 281 280 290 297 300 298 287 298
304 304 304 304 304 305 305 306 306 307 307 302 298 298 296 289 290 291 287 287 291 290 288 289 288 289 294 288 282 279 277 287 282 285 285 285 285 282 281 280 286 295 297 299 287 287 297
303 303 304 304 305 305 305 306 307 307 308 302 295 298 296 291 290 292 293 288 291 290 287 290 289 290 287 284 281 280 282 287 286 288 286 286 285 282 283 281 282 296 296 289 293 297 298
302 303 303 304 304 305 305 306 307 307 308 307 297 297 300 294 292 294 295 296 294 294 291 292 290 290 291 285 287 285 286 287 286 282 291 285 289 286 289 290 298 298 298 300 298 296 298

GFSGBSN_sfc_thetae_027.txt.gz
Theta_e
310 310 309 309 309 309 309 308 310 310 311 311 312 312 312 312 312 312 312 312 313 312 312 311 312 312 309 300 298 306 317 314 314 320 310 306 309 308 304 308 311 309 311 314 316 316 315
308 308 309 308 308 308 307 307 308 309 310 310 311 311 311 311 311 311 311 312 312 311 311 311 311 312 303 291 308 310 311 309 305 315 310 307 306 311 307 307 307 309 311 311 313 313 313
308 308 309 308 308 308 307 307 308 309 309 309 310 310 311 311 311 310 310 311 312 311 312 312 312 306 299 296 309 310 309 307 306 304 302 309 311 307 307 303 308 306 303 306 306 308 306
309 309 308 308 309 308 307 307 309 308 309 310 311 311 311 311 311 310 310 311 311 311 312 313 313 305 295 306 310 307 309 308 309 309 306 305 310 308 305 306 303 301 301 297 304 304 305
308 308 308 308 308 307 308 308 308 309 309 309 311 311 310 310 311 310 310 311 311 311 311 311 306 300 293 307 302 308 309 304 307 308 306 305 305 304 304 300 298 299 295 296 298 303 303
309 308 308 308 308 308 308 308 308 309 309 309 311 311 310 310 310 310 310 309 309 308 307 307 304 295 297 296 303 306 309 307 303 303 300 300 301 298 297 297 291 293 293 296 296 301 301
309 309 309 308 308 308 308 308 308 309 309 309 310 310 310 310 309 309 307 302 300 297 299 295 295 295 297 301 305 302 306 305 303 299 294 297 294 293 296 297 298 299 297 297 299 302 300
307 307 307 308 308 308 309 309 309 309 309 309 310 310 310 310 309 308 304 296 296 297 290 298 297 298 300 302 295 299 305 298 296 292 296 294 291 297 300 299 296 296 295 295 299 301 301
306 306 307 308 309 309 309 308 309 309 310 310 310 310 310 310 310 303 299 298 304 304 291 294 297 296 298 300 295 296 301 298 294 292 293 292 295 298 297 297 295 295 294 295 296 300 302
307 307 308 308 309 309 309 309 309 309 310 310 310 310 310 309 301 301 298 303 305 304 286 288 292 296 299 299 293 301 301 299 295 292 293 294 298 296 294 295 297 293 299 298 297 295 293
306 307 307 309 309 309 309 309 309 309 309 310 309 309 309 308 302 297 300 305 305 299 273 289 294 304 300 295 296 298 302 298 293 293 294 291 293 293 293 295 298 296 300 298 297 295 296
307 306 307 308 308 308 309 309 308 309 309 309 309 308 308 303 303 302 305 304 300 284 273 286 292 291 292 294 294 297 297 299 300 296 295 295 298 297 296 298 300 301 299 299 299 297 290
307 307 307 307 308 308 308 308 308 309 309 309 308 307 306 304 297 303 304 299 282 276 287 285 287 290 290 289 290 292 292 290 290 288 289 293 293 297 298 295 299 300 296 289 287 288 289
307 307 308 308 308 308 308 308 308 308 308 308 307 305 303 303 304 304 299 289 275 281 283 290 288 288 285 288 287 288 289 290 292 293 292 288 286 294 297 296 295 297 297 291 284 285 289
307 308 308 308 309 308 308 308 308 308 308 307 304 302 301 302 303 303 293 279 279 283 287 285 287 284 284 287 286 286 287 290 292 292 287 290 290 298 297 298 298 296 293 299 293 293 291
306 307 307 308 309 308 308 308 308 308 307 306 298 298 298 305 305 300 288 281 283 289 289 288 281 285 281 283 284 284 284 289 290 294 296 293 289 296 297 299 300 298 300 290 293 285 284
307 307 307 307 308 308 308 308 308 308 307 305 298 292 298 304 303 292 283 283 286 291 290 286 284 283 283 282 285 284 284 288 291 292 295 294 293 293 296 293 293 294 294 295 296 293 287
306 307 307 306 307 307 307 307 308 307 306 302 295 288 299 304 289 287 285 286 290 289 291 289 289 287 285 285 285 285 284 287 293 293 289 294 293 290 292 298 299 297 296 296 290 289 292
306 306 306 307 306 306 306 306 307 307 305 299 291 290 300 300 283 284 288 287 289 288 289 288 287 289 290 286 283 287 288 293 294 291 288 293 291 288 290 294 298 295 296 297 297 297 291
305 306 306 306 305 305 304 305 306 306 305 299 292 285 293 294 292 286 284 285 286 291 290 290 289 290 288 286 289 286 287 291 294 293 295 295 290 289 288 291 295 292 294 296 296 291 291
305 305 305 306 305 305 305 304 306 306 305 298 291 288 291 283 286 286 286 285 285 284 290 290 287 287 287 283 285 285 288 291 293 296 294 292 285 288 290 291 293 294 294 294 293 295 291
304 305 305 305 305 305 304 304 306 305 304 297 291 290 292 288 288 286 285 285 284 286 287 285 286 288 288 285 286 284 288 289 289 292 292 293 286 289 289 292 293 292 295 295 295 295 296
305 305 305 304 304 304 304 305 306 306 305 296 295 297 292 288 286 285 285 285 286 288 289 290 289 287 287 289 292 293 293 292 292 291 290 290 289 287 287 290 292 289 295 296 296 297 297
304 305 304 304 304 304 305 306 306 307 306 301 299 295 290 284 286 285 286 287 286 288 286 290 291 288 292 296 296 295 293 293 293 292 294 290 288 289 286 290 283 295 302 301 298 299 300
304 304 304 304 305 305 305 306 307 307 306 300 300 296 291 285 287 287 288 286 288 290 290 290 292 294 296 293 289 286 287 288 290 292 292 294 290 287 285 287 292 296 298 297 297 298 302
303 303 304 304 305 305 305 305 307 307 307 303 301 301 295 287 287 290 288 289 286 287 288 290 296 298 295 290 287 281 280 284 284 288 294 293 293 288 287 283 285 294 299 302 302 294 301
304 304 303 304 304 305 304 305 306 307 308 305 302 301 296 290 292 292 288 288 291 289 286 289 291 291 293 289 284 282 283 287 282 285 284 286 286 284 286 286 290 298 301 302 293 294 301
303 303 304 304 304 304 305 305 306 307 308 304 302 301 297 292 292 294 294 291 291 291 287 291 289 291 289 285 286 286 285 286 287 289 288 287 286 284 286 285 285 300 301 295 298 302 302
303 303 303 303 304 304 304 305 306 307 308 308 300 302 301 294 293 299 298 298 297 296 292 292 291 290 291 287 289 288 287 289 287 284 293 287 291 289 291 292 300 300 301 305 303 301 302

GFSGBSN_sfc_thetae_030.txt.gz
Theta_e
310 310 310 309 309 309 309 308 308 309 310 309 310 311 311 311 312 311 311 311 311 312 312 312 312 311 311 304 303 312 319 321 313 321 313 310 309 312 310 312 312 312 315 317 318 318 318
309 309 308 308 309 308 307 308 308 309 309 309 310 311 311 311 312 311 310 311 311 312 312 312 312 312 306 296 310 313 313 312 311 311 316 313 309 313 314 313 312 314 313 313 316 317 318
310 309 309 309 309 308 308 308 309 309 310 310 310 310 311 311 311 311 312 312 312 312 312 313 313 310 304 300 310 312 311 310 312 309 310 315 313 311 314 310 315 313 309 311 312 314 313
310 309 309 309 308 308 309 309 309 309 309 310 311 311 311 311 311 311 311 311 311 311 312 313 313 309 299 308 311 309 311 310 311 312 309 311 314 311 311 313 309 307 309 303 310 311 312
309 309 310 309 309 309 309 309 309 309 309 309 310 311 310 310 310 310 311 311 311 312 312 312 309 306 297 309 303 308 309 306 309 311 311 309 308 307 308 303 303 305 300 303 306 312 309
308 308 308 308 309 309 309 310 310 310 311 310 311 311 311 310 310 310 310 311 310 310 310 311 309 299 301 297 304 307 310 310 306 307 306 304 303 301 303 302 297 300 301 304 305 310 307
307 308 308 309 309 309 310 310 310 310 310 311 311 311 311 311 311 310 309 307 303 301 303 299 298 299 299 303 305 303 307 307 307 304 299 302 297 296 300 303 305 305 304 304 306 310 307
308 308 310 309 310 309 309 310 310 310 310 310 310 310 310 311 310 310 307 300 300 302 294 300 300 299 301 302 296 300 305 301 301 296 300 299 295 301 303 304 302 302 301 303 307 309 308
307 308 309 309 309 309 309 310 310 311 310 310 310 309 309 310 309 308 304 302 307 306 294 296 299 298 300 302 296 297 301 299 298 297 297 296 298 302 301 301 300 300 299 301 302 306 307
307 307 308 308 309 309 308 308 309 309 310 310 310 310 309 309 305 306 302 306 308 308 288 290 295 299 302 302 297 305 305 299 298 295 298 297 302 300 299 298 301 297 303 301 301 299 295
307 307 308 309 309 309 309 309 309 309 309 310 310 310 309 307 304 301 303 308 308 304 277 292 297 306 302 298 299 300 306 301 293 296 298 295 297 299 298 299 302 299 304 302 301 299 299
308 308 308 309 308 309 309 309 309 309 309 309 310 309 308 306 304 305 308 308 304 285 277 288 295 293 294 296 296 300 300 304 300 295 299 298 303 301 301 302 302 303 302 302 302 300 293
308 307 308 309 309 309 309 309 309 309 309 309 309 307 307 305 299 306 307 301 285 279 289 286 289 292 292 290 293 294 294 295 292 287 289 296 297 301 302 299 302 301 299 293 291 292 291
307 308 308 309 309 309 309 308 308 309 309 308 307 304 305 308 309 306 303 291 278 283 285 292 290 290 287 290 290 291 291 291 297 294 291 289 289 297 301 300 298 299 300 294 288 291 295
307 308 308 308 308 308 308 308 308 308 308 307 305 309 307 308 310 307 297 283 283 285 289 288 289 285 286 288 288 288 288 286 293 296 290 290 292 301 301 302 303 299 297 303 299 300 295
307 307 307 307 306 307 308 307 308 308 307 306 304 304 303 308 309 305 291 284 286 291 291 290 284 287 284 286 286 287 286 289 290 296 299 295 291 300 299 302 303 302 304 296 299 291 290
307 307 307 307 306 306 307 307 307 307 307 305 304 298 303 309 306 295 287 287 289 293 293 289 287 285 286 286 287 286 285 289 291 294 297 297 295 297 299 297 297 299 299 301 301 299 293
306 306 306 306 305 305 306 306 306 307 305 304 301 294 304 308 295 290 287 289 292 292 294 292 292 289 288 288 287 286 285 288 294 294 291 297 296 292 296 301 303 302 300 301 295 294 297
306 306 306 307 305 305 306 306 306 306 305 302 297 296 307 304 288 290 290 289 291 291 291 291 290 291 292 289 285 288 289 294 294 293 291 294 294 291 293 298 301 299 301 302 303 303 297
305 306 306 306 305 305 306 306 306 305 305 303 298 291 298 300 295 287 287 288 288 293 291 292 291 293 291 289 291 288 289 293 295 294 295 296 294 294 291 294 298 296 298 301 301 296 297
304 305 305 305 305 305 306 306 306 305 305 303 299 293 294 290 289 287 289 289 288 287 291 293 290 290 288 285 288 287 291 291 294 296 295 296 291 295 296 296 296 298 297 298 298 299 296
304 304 305 305 305 305 306 306 306 306 305 303 295 292 295 292 291 288 289 289 287 288 288 288 289 290 290 287 288 288 290 290 288 292 293 296 290 295 292 296 296 295 298 299 299 300 299
305 305 304 305 305 306 306 306 306 306 306 299 299 302 293 291 289 287 288 289 288 289 292 292 291 289 290 291 295 296 296 296 295 293 293 292 292 292 289 295 294 292 297 299 300 301 301
304 305 304 304 305 306 306 306 306 307 306 304 301 298 290 287 290 289 289 290 288 289 287 292 293 291 295 299 298 299 298 296 296 295 296 292 291 292 291 294 286 299 305 303 301 302 303
303 304 303 304 304 305 306 306 307 307 307 304 304 297 292 286 289 289 290 289 291 292 290 292 294 296 299 295 290 289 290 291 292 294 294 296 292 290 289 290 295 299 302 302 300 301 306
303 303 303 304 304 305 305 306 307 307 307 306 305 304 296 288 290 291 289 290 288 289 291 292 298 301 297 292 289 284 284 285 286 290 296 295 295 289 291 288 287 298 303 306 306 299 306
303 303 303 303 303 305 305 305 305 307 308 307 306 306 297 289 293 294 290 289 292 292 288 292 294 293 295 289 286 286 287 289 284 285 288 288 289 286 287 291 295 302 305 307 295 298 307
303 303 304 304 304 304 305 305 305 307 308 308 305 308 300 293 294 297 296 292 291 291 287 293 293 293 292 286 287 287 286 290 289 288 289 289 286 286 287 289 289 304 305 300 303 308 308
303 303 303 304 304 304 304 305 305 306 307 308 303 309 306 296 296 301 300 300 297 298 293 293 293 292 292 289 292 289 288 290 289 287 294 289 293 292 293 292 301 303 305 307 308 307 308

GFSGBSN_sfc_thetae_033.txt.gz
Theta_e
310 310 310 310 310 309 309 309 309 310 310 311 311 312 311 312 312 312 312 312 311 312 312 313 313 313 311 305 305 318 322 323 317 318 318 313 308 310 311 312 314 312 314 316 319 320 319
311 310 310 310 309 309 309 310 309 310 310 311 311 311 312 312 312 312 313 313 313 312 312 313 313 313 308 298 313 314 314 314 315 315 317 317 312 314 314 314 313 316 316 315 317 317 318
310 310 310 310 309 309 310 310 310 310 310 311 311 311 311 312 311 311 312 312 312 312 312 313 313 312 305 302 311 313 313 312 313 313 310 316 319 314 315 312 317 316 312 315 315 316 315
311 310 309 310 310 310 310 311 311 311 311 312 311 311 311 311 311 312 312 312 312 312 312 313 314 311 301 310 312 309 311 310 312 313 313 314 317 315 312 315 313 310 312 306 313 315 315
309 310 310 310 311 310 311 311 311 311 311 311 312 312 311 311 311 312 312 312 312 313 313 313 311 308 300 312 306 309 310 306 309 311 313 313 311 309 310 306 305 308 303 305 308 315 314
309 309 310 310 310 310 310 310 311 311 311 311 311 311 311 311 311 312 311 311 313 311 312 313 311 302 305 300 304 307 311 310 307 307 307 307 305 302 303 303 296 300 302 305 305 311 312
309 310 310 310 309 309 310 310 310 310 311 311 310 311 311 311 311 310 310 310 305 304 308 302 301 301 302 305 307 304 307 307 308 305 299 305 299 296 300 303 305 305 304 304 308 312 309
308 309 309 309 309 309 309 309 309 310 310 310 310 310 310 311 310 310 310 303 303 303 295 302 301 301 303 304 297 301 305 300 301 298 301 301 296 302 303 304 303 303 302 303 308 312 310
309 309 309 309 309 309 309 310 310 310 310 310 310 310 310 311 310 309 306 305 309 308 296 297 301 300 301 303 298 298 302 300 297 298 299 296 300 304 302 301 301 302 301 302 304 309 310
309 309 309 309 310 310 309 309 309 310 310 310 310 310 310 309 306 308 304 308 309 309 289 292 296 300 302 303 298 305 305 299 297 294 299 298 302 302 301 300 302 298 305 304 304 303 299
309 309 309 310 310 310 310 309 309 309 310 310 310 310 309 307 306 304 306 309 309 304 278 294 296 307 304 299 300 301 308 302 294 295 296 295 299 298 299 300 303 301 306 305 304 302 301
309 308 309 309 309 309 309 309 309 309 310 310 310 309 308 309 308 307 309 310 305 288 278 289 296 295 296 298 298 301 300 305 303 296 296 297 303 302 301 304 305 305 303 304 305 302 295
308 308 309 308 309 309 308 309 309 308 309 309 309 308 307 309 302 310 309 301 286 281 291 288 290 293 293 292 294 295 295 295 294 289 289 293 296 302 304 300 304 304 300 293 293 294 294
308 308 308 308 307 308 308 308 308 308 308 308 308 306 308 309 309 309 303 293 281 286 287 292 291 291 288 291 292 293 292 291 296 294 292 288 286 297 303 301 299 301 300 294 288 291 294
308 307 307 307 307 306 307 307 307 307 307 307 305 310 306 310 311 309 296 285 285 288 290 289 290 286 288 290 291 291 291 290 294 296 291 290 289 300 302 303 303 300 298 304 298 301 296
307 307 307 307 307 306 307 307 307 307 307 306 308 306 306 311 312 307 292 286 289 293 293 292 285 288 284 287 287 289 289 294 291 293 295 296 290 296 301 303 303 302 305 296 299 291 291
306 306 306 307 306 305 307 306 307 306 306 305 306 301 307 314 311 301 289 289 291 295 295 291 288 288 289 287 289 287 288 292 293 294 297 297 295 296 298 298 297 299 299 300 302 300 294
306 306 306 306 306 305 306 306 305 306 305 306 305 296 307 312 297 298 292 292 294 293 296 293 293 291 290 290 289 289 288 291 295 295 293 298 294 292 295 303 304 302 301 302 297 296 300
305 305 306 306 307 306 306 306 307 306 305 305 300 301 309 307 290 291 294 292 294 292 292 292 290 293 294 291 287 290 291 295 296 294 293 297 294 289 293 299 302 299 302 304 304 305 300
305 306 306 306 306 306 306 306 307 306 306 305 302 294 300 304 298 290 291 291 290 295 293 294 292 294 292 290 293 289 291 294 295 296 297 296 294 291 289 295 299 297 300 303 303 299 301
304 305 305 305 306 307 307 307 306 306 306 305 301 297 297 291 292 291 292 290 290 290 295 295 292 291 291 288 289 289 291 293 294 296 296 294 291 292 293 296 298 299 299 301 301 303 300
305 306 305 305 306 306 307 307 307 306 306 304 298 295 297 293 294 291 291 291 289 291 291 291 290 293 293 290 291 288 292 292 292 293 293 295 291 294 290 293 297 297 300 301 302 303 304
305 306 306 306 306 305 306 307 307 307 306 303 303 301 296 292 292 290 291 290 291 291 293 295 293 292 291 292 296 298 297 297 296 293 292 293 293 293 286 293 295 292 299 301 302 305 304
305 305 306 306 306 306 306 307 306 307 306 307 305 302 292 289 291 289 291 292 291 292 289 295 295 293 297 302 301 301 299 298 297 297 297 294 291 294 288 291 286 298 305 305 302 304 306
304 304 305 305 305 305 306 306 306 307 308 306 308 301 294 288 292 291 292 291 294 294 293 294 296 299 302 299 293 291 291 292 294 296 295 296 292 289 288 289 296 299 304 302 302 301 306
303 303 304 305 304 305 306 306 306 306 307 306 307 308 299 290 292 294 292 293 291 291 293 295 300 301 301 293 291 286 284 288 287 291 296 297 297 292 291 288 285 297 306 309 309 300 309
304 304 304 303 303 304 305 305 306 306 307 307 307 311 301 292 296 296 292 291 294 293 291 293 297 296 300 292 288 287 287 293 287 286 288 291 293 289 290 291 296 303 308 309 297 298 310
305 305 304 304 304 304 304 305 305 306 307 307 306 312 302 296 299 300 298 293 292 291 288 295 295 297 295 288 288 288 288 290 290 291 291 289 287 291 292 291 289 306 307 302 305 310 311
305 305 305 305 305 304 304 305 305 306 306 306 303 311 309 299 299 305 306 304 299 297 293 294 293 293 295 290 293 290 287 290 289 286 296 290 294 295 297 294 302 304 305 309 310 309 312